Simultaneous Nadir Overpasses (SNOs) Predictions

Prediction of SNOs between NOAA-20 and NOAA-19 Satellite Orbit:

Table of predicted SNOs for the next 14.0 days since TLE Epoch: 11/30/2018
Index Date (NOAA-20) Time (NOAA-20) Lat,Lon (NOAA-20) SZA (NOAA-20 ) Date (NOAA-19) Time (NOAA-19) Lat,Lon (NOAA-19) SZA (NOAA-19 ) Distance(km) Time Diff (sec)
1 12/01/2018 07:39:15 -80.34,-157.64 75.75 12/01/2018 07:38:03 -80.32,-157.61 75.73 1.88 72
2 12/01/2018 08:30:00 80.33, 9.77 104.24 12/01/2018 08:29:07 80.34, 9.86 104.26 1.72 53
3 12/01/2018 09:20:45 -80.34, 176.95 75.73 12/01/2018 09:20:04 -80.32, 176.89 75.72 2.39 41
4 12/01/2018 10:11:30 80.34, -15.64 104.26 12/01/2018 10:11:08 80.34, -15.64 104.27 0.27 22
5 12/01/2018 11:02:15 -80.35, 151.54 75.71 12/01/2018 11:02:04 -80.34, 151.72 75.73 3.43 11
6 12/01/2018 11:53:00 80.34, -41.05 104.28 12/01/2018 11:53:09 80.34, -41.14 104.29 1.64 9
7 12/01/2018 12:43:45 -80.35, 126.13 75.70 12/01/2018 12:44:05 -80.34, 126.22 75.72 1.84 20
8 12/01/2018 13:34:30 80.34, -66.47 104.30 12/01/2018 13:35:10 80.34, -66.64 104.30 3.29 40
9 12/01/2018 14:25:15 -80.35, 100.71 75.68 12/01/2018 14:26:06 -80.34, 100.72 75.71 0.98 51
10 12/01/2018 15:16:00 80.34, -91.88 104.32 12/01/2018 15:17:10 80.36, -91.81 104.29 1.95 70




NCC Satellite Simultaneous Nadir Overpasses (SNOs) Prediction Service
